This demonstration page uses our WeatherBlox Daily Observations layout. Learn more.

Left ArrowRight Arrow

39.12711, -84.51439

Hourly Observations for June 9, 2018

Temp ( °F °C ) Dew Point ( °F °C ) Humidity (%) Winds ( mph kmh ) Pressure ( in mb ) Visibility ( mi km ) Precip ( " mm )
12:06 am 00:06 Clear with Mist and Fog 64 17.8 64 17.8 100 100 N N/A 30.12 1020 2 3 N/A
12:35 am 00:35 Clear with Fog 65 18.3 65 18.3 100 100 N N/A 30.12 1020 1 1 N/A
12:45 am 00:45 Clear with Fog 65 18.3 65 18.3 100 100 N N/A 30.12 1020 0 0 N/A
12:53 am 00:53 Clear with Fog 65 18.3 65 18.3 100 100 N N/A 30.14 1021 1 1 N/A
1:00 am 01:00 Mostly Cloudy with Fog 65 18.3 65 18.3 100 100 N N/A 30.12 1020 0 0 N/A
1:09 am 01:09 Clear with Fog 65 18.3 65 18.3 100 100 N N/A 30.12 1020 1 1 N/A
1:20 am 01:20 Mostly Cloudy with Fog 65 18.3 65 18.3 100 100 N N/A 30.12 1020 0 0 N/A
1:29 am 01:29 Clear with Mist and Fog 65 18.3 65 18.3 100 100 N N/A 30.12 1020 1 1 N/A
1:36 am 01:36 Mostly Cloudy with Fog 64 17.8 64 17.8 100 100 N N/A 30.09 1019 0 0 N/A
1:46 am 01:46 Clear with Fog 64 17.8 64 17.8 100 100 N N/A 30.09 1019 1 1 N/A
1:53 am 01:53 Clear with Mist and Fog 64 17.8 64 17.8 100 100 SSW 3 6 30.12 1020 1 2 N/A
2:08 am 02:08 Clear with Mist and Fog 64 17.8 64 17.8 100 100 SW 3 6 30.09 1019 1 1 N/A
2:15 am 02:15 Clear with Mist and Fog 65 18.3 65 18.3 100 100 WSW 3 6 30.09 1019 2 3 N/A
2:28 am 02:28 Clear with Mist and Fog 63 17.2 63 17.2 100 100 SW 5 7 30.09 1019 1 1 N/A
2:53 am 02:53 Clear with Mist and Fog 64 17.8 64 17.8 100 100 N N/A 30.11 1020 3 4 N/A
3:01 am 03:01 Clear with Mist and Fog 64 17.8 64 17.8 100 100 N N/A 30.09 1019 1 2 N/A
3:13 am 03:13 Mostly Cloudy with Fog 64 17.8 64 17.8 100 100 N N/A 30.09 1019 1 1 N/A
3:21 am 03:21 Mostly Cloudy with Fog 64 17.8 64 17.8 100 100 N N/A 30.09 1019 0 0 N/A
3:24 am 03:24 Clear with Fog 64 17.8 64 17.8 100 100 N N/A 30.09 1019 1 1 N/A
3:36 am 03:36 Mostly Cloudy with Fog 63 17.2 63 17.2 100 100 ENE 3 6 30.09 1019 1 1 N/A
3:53 am 03:53 Mostly Cloudy with Mist and Fog 64 17.8 64 17.8 100 100 N N/A 30.11 1020 1 2 N/A
3:58 am 03:58 Mostly Clear with Mist and Fog 64 17.8 64 17.8 100 100 N N/A 30.09 1019 2 3 N/A
4:05 am 04:05 Clear with Mist and Fog 64 17.8 64 17.8 100 100 N N/A 30.09 1019 1 1 N/A
4:12 am 04:12 Mostly Cloudy with Mist and Fog 64 17.8 64 17.8 100 100 N N/A 30.09 1019 1 2 N/A
4:16 am 04:16 Mostly Clear with Mist and Fog 64 17.8 64 17.8 100 100 N N/A 30.09 1019 2 3 N/A
4:29 am 04:29 Mostly Cloudy with Mist and Fog 63 17.2 63 17.2 100 100 N N/A 30.09 1019 1 2 N/A
4:32 am 04:32 Mostly Cloudy with Fog 63 17.2 63 17.2 100 100 N N/A 30.09 1019 1 1 N/A
4:40 am 04:40 Mostly Cloudy with Fog 62 16.7 62 16.7 100 100 N N/A 30.09 1019 0 0 N/A
4:53 am 04:53 Mostly Cloudy with Fog 63 17.2 63 17.2 100 100 N N/A 30.10 1019 0 0 N/A
5:53 am 05:53 Mostly Cloudy with Fog 63 17.2 63 17.2 100 100 N N/A 30.09 1019 0 0 N/A
6:03 am 06:03 Mostly Cloudy with Fog 63 17.2 63 17.2 100 100 N N/A 30.09 1019 0 0 N/A
6:24 am 06:24 Mostly Cloudy with Fog 63 17.2 63 17.2 100 100 N N/A 30.09 1019 5 8 N/A
6:53 am 06:53 Mostly Cloudy with Fog 64 17.8 64 17.8 100 100 N N/A 30.10 1019 5 8 N/A
7:50 am 07:50 Mostly Cloudy with Patchy Fog 64 18 64 18 100 100 ENE 6 9 30.09 1019 1 2 N/A
7:53 am 07:53 Mostly Cloudy with Patchy Fog 65 18.3 65 18.3 100 100 ENE 5 7 30.11 1020 1 2 N/A
8:18 am 08:18 Sunny with Mist and Fog 66 18.9 66 18.9 100 100 NNE 7 11 30.09 1019 6 10 N/A
8:53 am 08:53 Sunny 69 20.6 68 20 96 96 NE 3 6 30.11 1020 10 16 N/A
9:53 am 09:53 Sunny 75 23.9 69 20.6 82 82 N N/A 30.10 1019 10 16 N/A
10:53 am 10:53 Sunny 78 25.6 71 21.7 79 79 N N/A 30.09 1019 10 16 N/A
11:53 am 11:53 Sunny 83 28.3 71 21.7 67 67 N N/A 30.07 1018 10 16 N/A
12:53 pm 12:53 Sunny 85 29.4 70 21.1 61 61 ESE 5 7 30.05 1018 10 16 N/A
1:53 pm 13:53 Partly Cloudy 88 31.1 70 21.1 55 55 N N/A 30.02 1017 10 16 N/A
2:53 pm 14:53 Partly Cloudy 88 31.1 69 20.6 54 54 S 7 11 30.00 1016 10 16 N/A
3:53 pm 15:53 Partly Cloudy 89 31.7 67 19.4 48 48 S 6 9 29.97 1015 10 16 N/A
4:53 pm 16:53 Mostly Sunny 89 31.7 69 20.6 52 52 S 9 15 29.95 1014 10 16 N/A
5:53 pm 17:53 Mostly Sunny 84 28.9 68 20 59 59 NW 9 15 29.96 1014 10 16 N/A
6:53 pm 18:53 Mostly Sunny 81 27.2 66 18.9 61 61 ENE 7 11 29.96 1015 10 16 N/A
7:53 pm 19:53 Partly Cloudy with Light Rain 79 26.1 70 21.1 74 74 N N/A 29.95 1014 10 16 N/A
8:53 pm 20:53 Partly Cloudy 76 24.4 70 21.1 82 82 NW 5 7 29.95 1014 10 16 N/A
9:53 pm 21:53 Clear 73 22.8 70 21.1 90 90 NNE 5 7 29.96 1015 10 16 N/A
10:53 pm 22:53 Clear 70 21.1 70 21.1 100 100 N N/A 29.97 1015 8 13 N/A
11:53 pm 23:53 Clear 71 21.7 70 21.1 96 96 N N/A 29.97 1015 8 13 N/A

Powered by AerisWeather